User: anonymous   Login
Location: Berbisdorf
(50.7638°N, 12.9442°E)
Time: 18:19:13
(UTC+00:00)
Language:

GEOS 3 Rocket - Orbit

View from above orbital plane
View from above orbital plane
View from above satellite
View from above satellite

Ground track
Ground track

The orbit data is extracted from the following two-line orbital elements,

1  7735U 75027B   20220.63606620 -.00000153 +00000-0 +10723-4 0  9995
2  7735 114.9744 127.8444 0053432 294.8203 064.7327 14.24613036353616
Epoch (UTC): 07 August 2020 15:15:56
Eccentricity: 0.0053432
inclination: 114.9744°
perigee height: 771 km
apogee height: 848 km
right ascension of ascending node: 127.8444°
argument of perigee: 294.8203°
revolutions per day: 14.24613036
mean anomaly at epoch: 64.7327°
orbit number at epoch: 35361

The dashed part of the orbit path shows where the satellite is in the earth's shadow,  

DLR